Location: Arminn?
(22.4167°N, 31.7833°E)
Time: 22:00:02
(UTC+00:00)

Daily predictions for brighter satellites

Satellite Brightness Start Highest point End
(mag) Time Altitude Azimuth Time Altitude Azimuth Time Altitude Azimuth
Okean O Rocket 4.0 16:44:03 10° SSW 16:47:42 25° W 16:51:22 10° NW
ISS -1.8 16:49:12 10° SE 16:50:26 12° SE 16:51:39 10° ESE
Cosmos 482 Debris 3.0 16:49:42 10° NW 16:51:39 51° SW 16:53:21 10° SSE
GPS 2-18 Rocket1 3.0 16:47:53 10° W 16:51:39 69° S 16:55:20 10° E
SAR-Lupe-4 3.6 16:53:06 10° NNE 16:56:38 56° ESE 17:00:07 10° S
FALCON 9 DEB 4.4 16:55:32 10° N 16:57:58 22° NE 17:00:14 11° E
Cosmos 1844 4.2 16:52:52 10° SSW 16:58:36 69° WNW 17:04:16 10° NNE
YAOGAN 1 2.6 16:54:32 10° SSE 16:58:51 90° WSW 17:03:10 10° NNW
SL-08 RB Rocket 3.9 16:54:26 10° SSE 16:58:51 51° ENE 17:03:14 10° N
Cosmos 1766 Rocket 4.3 16:54:41 10° NNW 16:59:03 59° W 17:03:25 10° S
Okean-O 2.6 16:55:04 10° SSE 16:59:27 68° ENE 17:03:51 10° N
Cosmos 1486 Rocket 4.4 16:54:23 10° SSW 16:59:40 73° WNW 17:04:59 10° N
Cosmos 2084 3.5 16:57:18 10° SSW 17:01:22 78° WNW 17:05:29 10° NNE
SAR-Lupe-1 4.1 17:04:31 10° N 17:08:05 83° WNW 17:11:39 10° SSW
Lacrosse 5 rocket 4.4 17:08:06 10° W 17:09:42 12° WSW 17:11:20 10° SW
Tianhe-1 0.9 17:08:07 10° SW 17:11:12 84° SE 17:14:20 10° NE
USA 267 4.2 17:06:21 11° ESE 17:11:52 34° NE 17:17:38 10° NNW
MOS 1-B Rocket 4.2 17:06:47 10° NNE 17:13:03 49° E 17:18:37 10° S
Cosmos 1553 Rocket 3.9 17:07:44 10° S 17:13:48 76° E 17:19:59 10° N
FALCON 9 DEB 4.2 17:12:07 10° N 17:14:42 25° NE 17:16:06 18° E
Cosmos 921 Rocket 3.6 17:15:08 10° NNW 17:19:13 54° W 17:23:16 10° S
Cosmos 1244 Rocket 4.4 17:16:48 10° N 17:23:00 70° E 17:29:07 10° SSE
[s.n.48412] 3.0 17:20:37 10° NW 17:23:19 56° SW 17:24:48 22° SSE
[s.n.48411] 3.0 17:20:40 10° NW 17:23:21 55° SW 17:24:50 22° SSE
[s.n.48410] 3.0 17:20:52 10° NW 17:23:33 55° SW 17:25:03 22° SSE
[s.n.48409] 3.0 17:20:57 10° NW 17:23:38 55° SW 17:25:07 22° SSE
[s.n.48408] 3.0 17:21:04 10° NW 17:23:44 54° SW 17:25:13 22° SSE
[s.n.48407] 3.0 17:21:12 10° NW 17:23:53 54° SW 17:25:21 22° SSE
[s.n.48406] 3.0 17:21:19 10° NW 17:24:00 54° SW 17:25:28 22° SSE
[s.n.48405] 3.0 17:21:22 10° NW 17:24:03 54° SW 17:25:31 22° SSE
[s.n.48404] 3.1 17:21:31 10° NW 17:24:12 53° SW 17:25:41 22° SSE
[s.n.48403] 3.1 17:21:39 10° NW 17:24:20 53° SW 17:25:49 22° SSE
[s.n.48402] 3.1 17:21:47 10° NW 17:24:28 53° SW 17:25:56 22° SSE
[s.n.48401] 3.1 17:21:54 10° NW 17:24:36 53° SW 17:26:05 22° SSE
[s.n.48400] 3.1 17:22:03 10° NW 17:24:44 52° SW 17:26:11 22° SSE
[s.n.48399] 3.1 17:22:04 10° NW 17:24:45 52° SW 17:26:12 22° SSE
[s.n.48398] 3.1 17:22:11 10° NW 17:24:53 52° SW 17:26:21 22° SSE
[s.n.48397] 3.1 17:22:19 10° NW 17:25:01 52° SW 17:26:28 22° SSE
[s.n.48396] 3.1 17:22:27 10° NW 17:25:08 51° SW 17:26:35 23° SSE
[s.n.48395] 3.1 17:22:36 10° NW 17:25:17 51° SW 17:26:43 23° SSE
[s.n.48394] 3.2 17:22:46 10° NW 17:25:27 51° SW 17:26:53 23° SSE
[s.n.48393] 3.2 17:22:53 10° NW 17:25:34 50° SW 17:27:00 23° SSE
[s.n.48392] 3.2 17:23:00 10° NW 17:25:41 50° SW 17:27:07 23° SSE
[s.n.48391] 3.2 17:23:09 10° NW 17:25:48 50° SW 17:27:14 23° SSE
[s.n.48390] 3.2 17:23:15 10° NW 17:25:55 50° SW 17:27:21 23° SSE
[s.n.48389] 3.2 17:23:23 10° NW 17:26:03 49° SW 17:27:29 23° SSE
[s.n.48388] 3.2 17:23:30 10° NW 17:26:10 49° SW 17:27:35 23° SSE
[s.n.48387] 3.2 17:23:31 10° NW 17:26:12 49° SW 17:27:37 23° SSE
[s.n.48386] 3.2 17:23:39 10° NW 17:26:20 49° SW 17:27:44 23° SSE
[s.n.48385] 3.2 17:23:46 10° NW 17:26:27 48° SW 17:27:51 23° SSE
[s.n.48384] 3.2 17:23:56 10° NW 17:26:36 48° SW 17:28:00 23° SSE
[s.n.48383] 3.2 17:24:03 10° NW 17:26:42 48° SW 17:28:06 23° SSE
[s.n.48382] 3.3 17:24:11 10° NW 17:26:50 48° SW 17:28:14 23° SSE
[s.n.48381] 3.3 17:24:20 10° NW 17:26:59 47° SW 17:28:22 23° S
[s.n.48380] 3.3 17:24:26 10° NW 17:27:06 47° SW 17:28:29 23° S
Intercosmos 24 4.0 17:22:56 10° S 17:27:12 49° E 17:30:42 10° NNE
[s.n.48379] 3.3 17:24:34 10° NW 17:27:14 47° SW 17:28:37 23° S
[s.n.48378] 3.3 17:24:40 10° NW 17:27:21 47° SW 17:28:46 23° S
[s.n.48377] 3.3 17:24:49 10° NW 17:27:28 46° SW 17:28:50 23° S
[s.n.48376] 3.3 17:24:53 10° NW 17:27:33 46° SW 17:28:54 23° S
[s.n.48375] 3.3 17:25:03 10° NW 17:27:41 46° SW 17:29:03 23° S
[s.n.48374] 3.3 17:25:09 10° NW 17:27:48 46° SW 17:29:09 23° S
[s.n.48373] 3.3 17:25:18 10° NW 17:27:57 45° SW 17:29:17 23° S
[s.n.48372] 3.4 17:25:19 10° NW 17:27:59 46° SW 17:29:22 23° S
[s.n.48371] 3.3 17:25:28 10° NW 17:28:07 45° SW 17:29:27 23° S
[s.n.48370] 3.4 17:25:35 10° NW 17:28:14 45° SW 17:29:35 23° S
[s.n.48369] 3.4 17:25:44 10° NW 17:28:22 45° SW 17:29:43 23° S
Nadezhda 2 Rocket 4.4 17:22:20 10° N 17:28:27 87° E 17:34:35 10° S
[s.n.48368] 3.4 17:25:50 10° NW 17:28:29 44° SW 17:29:50 23° S
Cosmos 1417 Rocket 4.4 17:22:20 10° S 17:28:36 85° E 17:34:46 10° N
[s.n.48367] 3.4 17:26:00 10° NW 17:28:38 44° SW 17:29:58 23° S
[s.n.48366] 3.4 17:26:06 10° NW 17:28:47 44° SW 17:30:08 23° S
[s.n.48365] 3.4 17:26:08 10° NW 17:28:48 44° SW 17:30:09 23° S
GPS 2-17 Rocket1 3.1 17:24:11 10° W 17:28:52 69° S 17:31:46 23° E
[s.n.48364] 3.4 17:26:16 10° NW 17:28:55 44° SW 17:30:15 23° S
[s.n.48363] 3.4 17:26:26 10° NW 17:29:04 43° SW 17:30:23 23° S
[s.n.48362] 3.4 17:26:33 10° NW 17:29:11 43° SW 17:30:30 23° S
ARGOS 4.1 17:24:07 10° S 17:29:15 48° W 17:34:25 10° NNW
[s.n.48361] 3.5 17:26:41 10° NW 17:29:19 43° SW 17:30:38 23° S
[s.n.48360] 3.5 17:26:49 10° NW 17:29:27 43° SW 17:30:45 23° S
[s.n.48359] 3.5 17:26:57 10° NW 17:29:35 42° SW 17:30:53 23° S
[s.n.48358] 3.5 17:27:04 10° NW 17:29:42 42° SW 17:31:00 23° S
[s.n.48357] 3.5 17:27:12 10° NW 17:29:50 42° SW 17:31:07 23° S
[s.n.48356] 3.5 17:27:20 10° NW 17:29:58 42° SW 17:31:15 23° S
[s.n.48355] 3.5 17:27:27 10° NW 17:30:04 41° SW 17:31:21 23° S
Ariane H10 4.2 17:19:46 10° WSW 17:30:06 24° SSW 17:33:05 15° SSE
[s.n.48354] 3.5 17:27:31 10° NW 17:30:08 41° SW 17:31:25 23° S
[s.n.48353] 3.5 17:27:38 10° NW 17:30:15 41° SW 17:31:32 23° S
Geosat 4.0 17:29:52 13° SSE 17:34:18 88° WSW 17:39:20 10° NNW
SL-4 R/B 2.8 17:31:26 10° NNW 17:35:43 43° NE 17:37:43 27° ESE
Meteor 1-26 Rocket 4.3 17:38:47 10° S 17:44:23 54° E 17:49:50 10° NNE
FALCON 9 DEB 2.6 17:44:56 10° NW 17:47:58 88° WSW 17:48:10 76° SSE
Cosmos 1242 Rocket 2.6 17:44:32 10° S 17:48:06 74° W 17:51:40 10° N
Cosmos 1777 Rocket 3.9 17:45:01 10° S 17:50:08 63° ESE 17:55:16 10° NNE
Mugunghwa Rocket 4.1 17:47:09 10° W 17:53:25 70° N 17:58:17 19° ENE
Ariane Rocket 3.4 17:55:52 38° ESE 17:56:49 43° ENE 18:01:34 10° N
Cosmos 1805 Rocket 3.4 17:54:45 10° N 17:59:07 79° E 18:00:22 46° SSE
USA 186 2.5 17:59:28 38° W 17:59:28 38° W 18:01:36 10° NNW
Cosmos 1328 Rocket 3.7 18:00:12 49° E 18:00:12 49° E 18:04:27 10° NNE
GEOS 3 Rocket 4.0 17:58:47 25° S 18:01:49 60° WSW 18:07:08 10° NW
IRS-1A Rocket 4.5 18:00:01 39° SE 18:01:51 54° ENE 18:07:30 10° N
ASTRO E2 2.9 17:58:07 10° WNW 18:02:00 53° SSW 18:02:14 52° SSW
CZ-2C R/B 2.9 18:03:08 10° SW 18:04:38 20° SSW 18:04:38 20° SSW
Cosmos 2278 Rocket 2.1 18:01:22 10° SSW 18:07:00 85° ESE 18:12:40 10° NNE
Helios 1A Rocket 4.3 18:05:37 16° SSW 18:08:23 35° W 18:12:10 10° NNW
Delta 202 3.6 18:04:53 10° WSW 18:10:24 57° S 18:11:04 53° SSE
OBJECT-B 1.5 18:10:46 50° W 18:10:46 50° W 18:13:47 10° NNW
Meteor 1-20 Rocket 4.0 18:08:45 10° N 18:14:15 73° E 18:15:21 56° SSE
Cosmos 1386 Rocket 4.4 18:10:53 10° N 18:16:59 85° W 18:19:50 34° S
CZ-4C R/B 4.4 18:11:16 10° N 18:17:12 22° NE 18:18:46 21° ENE
Resurs 1-3 3.6 18:20:20 68° NNE 18:20:20 68° NNE 18:24:19 10° N
Meteor 2-17 Rocket 4.4 18:14:24 10° N 18:20:27 58° E 18:21:04 56° ESE
ISS -1.8 18:23:57 10° WSW 18:26:39 30° WNW 18:26:39 30° WNW
SJ 16-02 2.5 18:32:14 35° NNE 18:32:14 35° NNE 18:34:51 10° NNE
IUS-13 SRM-1 4.4 18:27:42 10° WSW 18:40:21 10° ENE 18:40:28 10° ENE
Cosmos 1782 4.1 18:32:11 35° WSW 18:32:47 37° W 18:36:30 10° NNW
ATLAS 5 CENTAUR R/B 2.6 18:26:45 10° NNW 18:32:59 61° ENE 18:33:35 58° E
Cosmos 1666 Rocket 4.3 18:29:42 10° N 18:32:46 45° N 18:32:46 45° N
Cosmos 1709 Rocket 3.7 18:31:39 10° N 18:37:44 80° E 18:38:02 78° ESE
Sich 1 4.3 18:38:45 10° NNW 18:42:45 36° W 18:42:58 36° W
SPOT 3 Rocket 4.2 18:55:03 48° N 18:55:03 48° N 18:58:44 10° N
USA 267 3.8 18:53:42 44° SSW 18:54:36 46° SW 19:00:51 10° NW
Cosmos 1833 Rocket 4.1 18:50:06 10° N 18:53:07 26° NNE 18:53:07 26° NNE
Resurs 01 Rocket 3.6 19:11:25 27° NW 19:11:25 27° NW 19:13:36 10° NNW
Cosmos 2082 Rocket 4.3 19:34:06 10° N 19:35:48 19° N 19:35:48 19° N
Kakehashi 4.4 19:35:42 10° WNW 19:44:08 58° WNW 19:44:08 58° WNW
CZ-4C R/B 3.7 19:58:08 10° NNW 20:03:58 51° NW 20:03:58 51° NW
ATLAS 2AS CENTAUR R/B 4.5 20:07:00 10° N 20:10:00 23° NNE 20:10:00 23° NNE
Milstar 3 3.8 20:03:08 10° W 20:15:26 61° NNW 20:15:26 61° NNW
SL-16 R/B 4.4 23:15:11 24° NNE 23:15:11 24° NNE 23:18:07 10° N
ADEOS II 4.4 23:40:40 10° NNE 23:42:10 20° NNE 23:42:10 20° NNE
Atlas Centaur 2 3.8 23:55:42 37° E 23:55:42 37° E 23:59:49 10° ENE
